Location: Unspecified
(0.0000°N, 0.0000°E)
Time: 15:22:04
(UTC+00:00)

deb Midas V - Pass Details

Date: 13 April 2026
Orbit: 2771 x 3389 km, 86.6° (Epoch: 16 May)

Event Time Altitude Azimuth Distance (km) Brightness Sun altitude
Rises 17:58:00 0° 10° (N) 7,379 ? 0.6°
Reaches altitude 10° 18:02:25 10° 14° (NNE) 6,328 ? -0.5°
Maximum altitude 18:19:40 62° 92° (E) 3,478 ? -4.7°
Drops below altitude 10° 18:35:30 10° 169° (S) 5,889 ? -8.6°
Sets 18:39:20 0° 172° (S) 6,850 ? -9.6°
